This demonstration page uses our WeatherBlox Daily Observations layout. Learn more.

Left ArrowRight Arrow

39.92423, -83.80882

Hourly Observations for January 27, 2020

Temp ( °F °C ) Dew Point ( °F °C ) Humidity (%) Winds ( mph kmh ) Pressure ( in mb ) Visibility ( mi km ) Precip ( " mm )
12:56 am 00:56 Partly Cloudy 31 -0.6 31 -0.6 100 100 W 6 9 29.91 1013 7 11.26538 0 0
1:07 am 01:07 Mostly Cloudy with Mist and Fog 32 0 32 0 100 100 W 5 7 29.92 1013 6 9.65604 0 0
1:56 am 01:56 Partly Cloudy 31 -0.6 31 -0.6 100 100 W 6 9 29.89 1012 7 11.26538 0 0
2:56 am 02:56 Clear with Mist and Fog 30 -1.1 30 -1.1 100 100 WSW 3 6 29.89 1012 5 8.0467 0 0
3:56 am 03:56 Clear with Mist and Fog 29 -1.7 29 -1.7 100 100 W 5 7 29.88 1012 5 8.0467 0 0
4:23 am 04:23 Mostly Cloudy with Mist and Fog 28 -2 28 -2 100 100 W 5 7 29.9 1013 5 8.0467 0 0
4:56 am 04:56 Cloudy with Mist and Fog 30 -1.1 30 -1.1 100 100 SW 5 7 29.87 1012 4 6.43736 0 0
5:56 am 05:56 Cloudy with Mist and Fog 31 -0.6 31 -0.6 100 100 W 5 7 29.87 1012 4 6.43736 0 0
6:28 am 06:28 Cloudy with Mist and Fog 30 -1 30 -1 100 100 W 3 6 29.91 1013 4 6.43736 0 0
6:56 am 06:56 Cloudy with Mist and Fog 30 -1.1 30 -1.1 100 100 W 3 6 29.89 1012 3 4.82802 0 0
7:56 am 07:56 Cloudy with Mist and Fog 31 -0.6 31 -0.6 100 100 WNW 5 7 29.9 1013 6 9.65604 0 0
8:56 am 08:56 Cloudy 32 0 31 -0.6 96 96 NW 5 7 29.92 1013 8 12.87472 0 0
9:56 am 09:56 Cloudy 31 -0.6 30 -1.1 96 96 NNW 7 11 29.93 1014 10 16.0934 0 0
10:56 am 10:56 Cloudy 32 0 31 -0.6 96 96 W 9 15 29.95 1014 8 12.87472 0 0
11:56 am 11:56 Cloudy 33 0.6 31 -0.6 92 92 WNW 8 13 29.95 1014 10 16.0934 0 0
12:56 pm 12:56 Cloudy 33 0.6 31 -0.6 92 92 NW 7 11 29.93 1014 8 12.87472 0 0
1:56 pm 13:56 Cloudy 33 0.6 32 0 96 96 W 9 15 29.92 1013 7 11.26538 0 0
2:24 pm 14:24 Cloudy 34 1 32 0 93 93 W 10 17 29.94 1014 7 11.26538 0 0
2:56 pm 14:56 Cloudy 34 1.1 32 0 92 92 NNW 10 17 29.93 1014 7 11.26538 0 0
3:56 pm 15:56 Cloudy 33 0.6 32 0 96 96 WNW 9 15 29.95 1014 7 11.26538 0 0
4:22 pm 16:22 Cloudy 34 1 32 0 93 93 NW 8 13 29.98 1015 7 11.26538 0 0
4:56 pm 16:56 Cloudy 33 0.6 32 0 96 96 NW 6 9 29.97 1015 7 11.26538 0 0
5:27 pm 17:27 Cloudy with Mist and Fog 34 1 30 -1 87 87 NW 8 13 29.99 1016 6 9.65604 0 0
5:56 pm 17:56 Cloudy with Mist and Fog 32 0 32 0 100 100 NW 8 13 29.99 1016 5 8.0467 0 0
6:56 pm 18:56 Cloudy 32 0 31 -0.6 96 96 NNW 8 13 30.01 1016 7 11.26538 0 0
8:56 pm 20:56 Cloudy 32 0 30 -1.1 92 92 WNW 7 11 30.03 1017 9 14.48406 0 0
9:56 pm 21:56 Cloudy 32 0 30 -1.1 92 92 NW 6 9 30.04 1017 10 16.0934 0 0
10:56 pm 22:56 Cloudy 32 0 31 -0.6 96 96 W 6 9 30.04 1017 7 11.26538 0 0
11:56 pm 23:56 Cloudy 32 0 31 -0.6 96 96 W 9 15 30.05 1018 7 11.26538 0 0

Powered by AerisWeather